Natchez, MS

8:00 PM CST on November 19, 2019 (GMT -0600)
Hardy-Anders-Adams County

Weather History for KHEZ - September, 2019

Change the Weather History Date:

Wednesday, September 25, 2019

  Actual Average Record
Temperature  
Mean Temperature 80 °F -  
Max Temperature 91 °F 84 °F 95 °F (1931)
Min Temperature 68 °F 63 °F 46 °F (1965)
Cooling Degree Days 14    
Growing Degree Days 30 (Base 50)    
Moisture  
Dew Point 68 °F    
Average Humidity 72    
Maximum Humidity 93    
Minimum Humidity 43    
Precipitation  
Precipitation 0.00 in - - ()
Sea Level Pressure  
Sea Level Pressure 29.93 in    
Wind  
Wind Speed 3 mph (SSW)    
Max Wind Speed 10 mph    
Max Gust Speed -    
Visibility 10 miles    
Events      
Averages and records for this station are not official NWS values.
T = Trace of Precipitation, MM = Missing Value Source: NWS Daily Summary

Daily Weather History Graph

Daily Weather History Graph

Search for Another Location

Airport or City:

Astronomy

Sep. 25, 2019 Rise Set
Actual Time 6:55 AM CDT 6:58 PM CDT
Civil Twilight 6:30 AM CDT 7:22 PM CDT
Nautical Twilight 6:02 AM CDT 7:50 PM CDT
Astronomical Twilight 5:34 AM CDT 8:19 PM CDT
Moon 3:08 AM CDT (9/25) 5:13 PM CDT (9/25)
Length of Visible Light 12h 51m
Length of Day
12h 03m
Waning Crescent, 14% of the Moon is Illuminated
Sep 25
Waning Crescent
Sep 28
New
Oct 5
First Quarter
Oct 13
Full
Oct 21
Last Quarter

Hourly Weather History & Observations

Time (CDT) Temp. Heat Index Dew Point Humidity Pressure Visibility Wind Dir Wind Speed Gust Speed Precip Events Conditions
12:56 AM 73.9 °F - 69.1 °F 85% 29.91 in 10.0 mi SSW 4.6 mph - N/A   Clear
1:56 AM 73.9 °F - 66.9 °F 79% 29.91 in 10.0 mi SSW 4.6 mph - N/A   Clear
2:56 AM 72.0 °F - 66.9 °F 84% 29.91 in 10.0 mi Calm Calm - N/A   Clear
3:56 AM 70.0 °F - 66.9 °F 90% 29.92 in 10.0 mi South 4.6 mph - N/A   Clear
4:56 AM 70.0 °F - 66.9 °F 90% 29.94 in 10.0 mi Calm Calm - N/A   Clear
5:56 AM 69.1 °F - 66.9 °F 93% 29.95 in 10.0 mi Calm Calm - N/A   Clear
6:56 AM 68.0 °F - 66.0 °F 93% 29.97 in 10.0 mi Calm Calm - N/A   Clear
7:56 AM 71.1 °F - 68.0 °F 90% 29.98 in 10.0 mi Calm Calm - N/A   Clear
8:56 AM 77.0 °F - 70.0 °F 79% 29.99 in 10.0 mi Calm Calm - N/A   Clear
9:56 AM 81.0 °F 83.8 °F 68.0 °F 65% 29.99 in 10.0 mi WNW 4.6 mph - N/A   Clear
10:56 AM 84.0 °F 86.5 °F 66.9 °F 56% 29.98 in 10.0 mi SW 5.8 mph - N/A   Clear
11:56 AM 86.0 °F 89.4 °F 68.0 °F 55% 29.98 in 10.0 mi Calm Calm - N/A   Clear
12:56 PM 88.0 °F 91.4 °F 68.0 °F 51% 29.95 in 10.0 mi Variable 4.6 mph - N/A   Clear
1:56 PM 90.0 °F 92.8 °F 66.9 °F 46% 29.91 in 10.0 mi South 10.4 mph - N/A   Partly Cloudy
2:56 PM 91.0 °F 95.2 °F 68.0 °F 47% 29.89 in 10.0 mi SW 10.4 mph - N/A   Partly Cloudy
3:56 PM 91.0 °F 94.3 °F 66.9 °F 45% 29.88 in 10.0 mi SW 5.8 mph - N/A   Partly Cloudy
4:27 PM 91.4 °F 94.0 °F 66.2 °F 43% 29.88 in 10.0 mi WSW 8.1 mph - N/A   Partly Cloudy
5:56 PM 88.0 °F 92.9 °F 70.0 °F 55% 29.87 in 10.0 mi SSW 6.9 mph - N/A   Partly Cloudy
6:56 PM 82.9 °F 86.5 °F 69.1 °F 63% 29.88 in 10.0 mi SW 4.6 mph - N/A   Clear
7:56 PM 79.0 °F - 69.1 °F 72% 29.90 in 10.0 mi SW 3.5 mph - N/A   Clear
8:56 PM 75.9 °F - 69.1 °F 79% 29.93 in 10.0 mi Calm Calm - N/A   Clear
9:56 PM 73.9 °F - 69.1 °F 85% 29.94 in 10.0 mi SSE 3.5 mph - N/A   Clear
10:56 PM 72.0 °F - 69.1 °F 91% 29.94 in 10.0 mi South 5.8 mph - N/A   Clear
11:56 PM 72.0 °F - 68.0 °F 87% 29.93 in 10.0 mi Calm Calm - N/A   Clear